• In Hungary
  • List of Countries
  • For 7 days
  • Water Temperature
  • Satellite Maps
  • Weather Map
  • News
  • Weather Widgets
  • user-avatar
    Login

    Hourly Weather Girino

    Today, 19 September, Wednesday

    Time Temperature Precipitation Wind Pressure Humidity
    00:00 +9°C° 0 mm 2 mps 741 mmHg 89%
    01:00 +9°C° 0 mm 2 mps 741 mmHg 88%
    02:00 +10°C° 0 mm 2 mps 741 mmHg 89%
    03:00 +10°C° 0.2 mm 2 mps 740 mmHg 90%
    04:00 +10°C° 0.2 mm 2 mps 740 mmHg 91%
    05:00 +10°C° 0.2 mm 3 mps 740 mmHg 92%
    06:00 +11°C° 0 mm 3 mps 740 mmHg 90%
    07:00 +13°C° 0 mm 3 mps 740 mmHg 87%
    08:00 +14°C° 0 mm 4 mps 740 mmHg 83%
    09:00 +17°C° 0 mm 4 mps 740 mmHg 76%
    10:00 +18°C° 0 mm 4 mps 740 mmHg 68%
    11:00 +20°C° 0 mm 4 mps 740 mmHg 60%
    12:00 +21°C° 0 mm 4 mps 739 mmHg 57%
    13:00 +22°C° 0 mm 4 mps 739 mmHg 53%
    14:00 +23°C° 0 mm 4 mps 739 mmHg 50%
    15:00 +22°C° 0 mm 3 mps 739 mmHg 56%
    16:00 +21°C° 0 mm 3 mps 739 mmHg 63%
    17:00 +19°C° 0 mm 3 mps 738 mmHg 69%
    18:00 +18°C° 0 mm 3 mps 738 mmHg 73%
    19:00 +17°C° 0 mm 3 mps 738 mmHg 78%
    20:00 +16°C° 0 mm 3 mps 738 mmHg 82%
    21:00 +16°C° 0 mm 3 mps 738 mmHg 85%
    22:00 +16°C° 0 mm 3 mps 738 mmHg 87%
    23:00 +16°C° 0 mm 3 mps 738 mmHg 90%

    Tomorrow, 20 September, Thursday

    Time Temperature Precipitation Wind Pressure Humidity
    00:00 +16°C° 0 mm 3 mps 738 mmHg 92%
    01:00 +14°C° 0 mm 3 mps 738 mmHg 94%
    02:00 +14°C° 0 mm 3 mps 738 mmHg 95%
    03:00 +14°C° 0 mm 3 mps 739 mmHg 96%
    04:00 +13°C° 0 mm 3 mps 739 mmHg 96%
    05:00 +13°C° 0 mm 3 mps 739 mmHg 97%
    06:00 +14°C° 0 mm 3 mps 739 mmHg 93%
    07:00 +14°C° 0 mm 3 mps 740 mmHg 89%
    08:00 +14°C° 0 mm 4 mps 740 mmHg 85%
    09:00 +17°C° 0 mm 4 mps 740 mmHg 79%
    10:00 +18°C° 0 mm 4 mps 741 mmHg 74%
    11:00 +19°C° 0 mm 4 mps 741 mmHg 68%
    12:00 +20°C° 0 mm 3 mps 741 mmHg 65%
    13:00 +21°C° 0 mm 3 mps 741 mmHg 61%
    14:00 +22°C° 0 mm 3 mps 741 mmHg 58%
    15:00 +21°C° 0 mm 3 mps 741 mmHg 64%
    16:00 +20°C° 0 mm 2 mps 741 mmHg 69%
    17:00 +19°C° 0 mm 2 mps 741 mmHg 75%
    18:00 +18°C° 0 mm 2 mps 741 mmHg 79%
    19:00 +16°C° 0 mm 2 mps 741 mmHg 84%
    20:00 +15°C° 0 mm 2 mps 742 mmHg 89%
    21:00 +15°C° 0 mm 2 mps 742 mmHg 90%
    22:00 +14°C° 0 mm 2 mps 742 mmHg 92%
    23:00 +14°C° 0 mm 2 mps 742 mmHg 94%

    Day after tomorrow, 21 September, Friday

    Time Temperature Precipitation Wind Pressure Humidity
    00:00 +14°C° 0 mm 2 mps 742 mmHg 94%
    01:00 +14°C° 0 mm 2 mps 742 mmHg 95%
    02:00 +14°C° 0 mm 2 mps 742 mmHg 95%
    03:00 +14°C° 0 mm 2 mps 743 mmHg 95%
    04:00 +13°C° 0 mm 2 mps 743 mmHg 96%
    05:00 +13°C° 0 mm 2 mps 743 mmHg 96%
    06:00 +15°C° 0 mm 2 mps 743 mmHg 92%
    07:00 +16°C° 0 mm 2 mps 743 mmHg 87%
    08:00 +17°C° 0 mm 2 mps 743 mmHg 83%
    09:00 +19°C° 0 mm 3 mps 743 mmHg 77%
    10:00 +21°C° 0 mm 3 mps 743 mmHg 72%
    11:00 +22°C° 0 mm 3 mps 744 mmHg 66%
    12:00 +24°C° 0 mm 3 mps 743 mmHg 64%
    13:00 +24°C° 0 mm 3 mps 743 mmHg 63%
    14:00 +25°C° 0 mm 3 mps 743 mmHg 61%
    15:00 +24°C° 0.3 mm 3 mps 743 mmHg 68%
    16:00 +21°C° 0.3 mm 2 mps 743 mmHg 75%
    17:00 +20°C° 0.3 mm 2 mps 742 mmHg 82%
    18:00 +19°C° 0 mm 2 mps 742 mmHg 86%
    19:00 +18°C° 0 mm 2 mps 742 mmHg 89%
    20:00 +17°C° 0 mm 2 mps 742 mmHg 92%
    21:00 +17°C° 0 mm 3 mps 742 mmHg 93%
    22:00 +17°C° 0 mm 3 mps 742 mmHg 93%
    23:00 +17°C° 0 mm 3 mps 742 mmHg 93%

    22 September, Saturday

    Time Temperature Precipitation Wind Pressure Humidity
    00:00 +17°C° 0 mm 3 mps 741 mmHg 93%
    01:00 +16°C° 0 mm 3 mps 741 mmHg 94%
    02:00 +16°C° 0 mm 3 mps 741 mmHg 94%
    03:00 +16°C° 0 mm 3 mps 740 mmHg 94%
    04:00 +16°C° 0 mm 3 mps 740 mmHg 94%
    05:00 +15°C° 0 mm 4 mps 739 mmHg 95%
    06:00 +17°C° 0 mm 4 mps 739 mmHg 89%
    07:00 +17°C° 0 mm 5 mps 738 mmHg 84%
    08:00 +19°C° 0 mm 5 mps 738 mmHg 79%
    09:00 +20°C° 0 mm 5 mps 738 mmHg 72%
    10:00 +21°C° 0 mm 6 mps 737 mmHg 64%
    11:00 +23°C° 0 mm 6 mps 737 mmHg 56%
    12:00 +22°C° 0.2 mm 6 mps 736 mmHg 59%
    13:00 +22°C° 0.2 mm 6 mps 736 mmHg 61%
    14:00 +22°C° 0.2 mm 6 mps 736 mmHg 63%
    15:00 +19°C° 1.1 mm 5 mps 736 mmHg 72%
    16:00 +17°C° 1.1 mm 4 mps 736 mmHg 81%
    17:00 +13°C° 1.1 mm 4 mps 736 mmHg 89%
    18:00 +13°C° 0.4 mm 3 mps 737 mmHg 90%
    19:00 +12°C° 0.4 mm 3 mps 737 mmHg 90%
    20:00 +12°C° 0.4 mm 2 mps 737 mmHg 91%
    21:00 +12°C° 0.8 mm 2 mps 737 mmHg 91%
    22:00 +10°C° 0.8 mm 3 mps 737 mmHg 91%
    23:00 +10°C° 0.8 mm 3 mps 737 mmHg 92%

    23 September, Sunday

    Time Temperature Precipitation Wind Pressure Humidity
    00:00 +10°C° 0.8 mm 3 mps 737 mmHg 92%
    01:00 +10°C° 0.8 mm 2 mps 737 mmHg 92%
    02:00 +10°C° 0.8 mm 2 mps 737 mmHg 93%
    03:00 +9°C° 0.1 mm 2 mps 737 mmHg 93%
    04:00 +9°C° 0.1 mm 2 mps 737 mmHg 94%
    05:00 +9°C° 0.1 mm 2 mps 736 mmHg 95%
    06:00 +9°C° 0 mm 2 mps 736 mmHg 93%
    07:00 +9°C° 0 mm 2 mps 736 mmHg 92%
    08:00 +10°C° 0 mm 2 mps 736 mmHg 90%
    09:00 +10°C° 0 mm 2 mps 735 mmHg 85%
    10:00 +12°C° 0 mm 2 mps 735 mmHg 79%
    11:00 +13°C° 0 mm 2 mps 735 mmHg 74%
    12:00 +13°C° 0 mm 2 mps 735 mmHg 69%
    13:00 +14°C° 0 mm 2 mps 735 mmHg 64%
    14:00 +14°C° 0 mm 3 mps 734 mmHg 59%
    15:00 +14°C° 0.3 mm 2 mps 734 mmHg 66%
    16:00 +13°C° 0.3 mm 2 mps 734 mmHg 74%
    17:00 +12°C° 0.3 mm 2 mps 734 mmHg 81%
    18:00 +10°C° 0.1 mm 2 mps 734 mmHg 84%
    19:00 +9°C° 0.1 mm 2 mps 734 mmHg 88%
    20:00 +8°C° 0.1 mm 2 mps 734 mmHg 92%
    21:00 +7°C° 0 mm 2 mps 734 mmHg 92%
    22:00 +7°C° 0 mm 3 mps 734 mmHg 93%
    23:00 +7°C° 0 mm 3 mps 734 mmHg 94%

    24 September, Monday

    Time Temperature Precipitation Wind Pressure Humidity
    00:00 +7°C° 0 mm 3 mps 734 mmHg 94%
    01:00 +7°C° 0 mm 3 mps 734 mmHg 95%
    02:00 +5°C° 0 mm 3 mps 734 mmHg 96%
    03:00 +7°C° 0 mm 3 mps 734 mmHg 95%
    04:00 +7°C° 0 mm 3 mps 734 mmHg 93%
    05:00 +8°C° 0 mm 3 mps 735 mmHg 92%
    06:00 +8°C° 0 mm 3 mps 735 mmHg 90%
    07:00 +8°C° 0 mm 3 mps 735 mmHg 88%
    08:00 +8°C° 0 mm 3 mps 735 mmHg 86%
    09:00 +9°C° 0 mm 3 mps 735 mmHg 82%
    10:00 +10°C° 0 mm 3 mps 735 mmHg 79%
    11:00 +10°C° 0 mm 3 mps 735 mmHg 75%
    12:00 +11°C° 0 mm 3 mps 735 mmHg 73%
    13:00 +12°C° 0 mm 2 mps 734 mmHg 71%
    14:00 +12°C° 0 mm 2 mps 734 mmHg 69%
    15:00 +12°C° 0.2 mm 2 mps 733 mmHg 74%
    16:00 +10°C° 0.2 mm 2 mps 733 mmHg 79%
    17:00 +9°C° 0.2 mm 2 mps 732 mmHg 84%
    18:00 +9°C° 1 mm 3 mps 732 mmHg 86%
    19:00 +7°C° 1 mm 4 mps 731 mmHg 88%
    20:00 +7°C° 1 mm 5 mps 730 mmHg 90%
    21:00 +7°C° 0.6 mm 5 mps 729 mmHg 90%
    22:00 +7°C° 0.6 mm 6 mps 727 mmHg 90%
    23:00 +7°C° 0.6 mm 6 mps 726 mmHg 90%
    Show more